Location: Brunembert
(50.7122°N, 1.8935°E)
Time: 09:38:00
(UTC+00:00)

Cosmos 1743 Rocket - Pass Details

Date: 22 April 2021
Orbit: 603 x 634 km, 82.6° (Epoch: 05 May)

Event Time Altitude Azimuth Distance (km) Brightness Sun altitude
Rises 21:45:54 0° 350° (N) 2,879 8.2 -21.2°
Reaches altitude 10° 21:48:07 10° 350° (N) 1,967 7.1 -21.3°
Maximum altitude 21:52:29 87° 81° (E) 613 3.4 -21.7°
Enters shadow 21:53:02 67° 162° (SSE) 657 3.4 -21.8°
